This demonstration page uses our WeatherBlox Daily Observations layout. Learn more.

Left ArrowRight Arrow

36.17497, -115.13722

Hourly Observations for June 13, 2019

Temp ( °F °C ) Dew Point ( °F °C ) Humidity (%) Winds ( mph kmh ) Pressure ( in mb ) Visibility ( mi km ) Precip ( " mm )
12:53 am 00:53 Clear 87 30.6 39 3.9 18 18 WNW 5 7 29.75 1007 10 16 0.00 0.00
1:53 am 01:53 Clear 83 28.3 40 4.4 22 22 NW 6 9 29.75 1007 10 16 0.00 0.00
2:53 am 02:53 Clear 84 28.9 39 3.9 20 20 SSW 3 6 29.74 1007 10 16 0.00 0.00
3:53 am 03:53 Clear 84 28.9 35 1.7 17 17 Calm 29.74 1007 10 16 0.00 0.00
4:53 am 04:53 Clear 78 25.6 39 3.9 25 25 NW 7 11 29.76 1008 10 16 0.00 0.00
5:53 am 05:53 Sunny 79 26.1 41 5 26 26 Calm 29.77 1008 10 16 0.00 0.00
6:53 am 06:53 Sunny 83 28.3 40 4.4 22 22 Calm 29.78 1008 10 16 0.00 0.00
7:53 am 07:53 Sunny 86 30 39 3.9 19 19 SSE 5 7 29.78 1009 10 16 0.00 0.00
8:53 am 08:53 Sunny 90 32.2 38 3.3 16 16 Calm 29.78 1009 10 16 0.00 0.00
9:53 am 09:53 Sunny 93 33.9 39 3.9 15 15 ESE 8 13 29.77 1008 10 16 0.00 0.00
10:53 am 10:53 Sunny 97 36.1 36 2.2 12 12 VRB 7 11 29.75 1008 10 16 0.00 0.00
11:22 am 11:22 Sunny 100 37.8 32 0 9 9 S 16 26 29.58 1002 10 16 0.00 0.00
11:53 am 11:53 Sunny 102 38.9 22 -5.6 6 6 SSW 20 31 29.73 1007 10 16 0.00 0.00
12:53 pm 12:53 Sunny 104 40 22 -5.6 5 5 SW 21 33 29.71 1006 10 16 0.00 0.00
1:53 pm 13:53 Sunny 104 40 28 -2.2 7 7 WSW 12 19 29.70 1006 10 16 0.00 0.00
2:53 pm 14:53 Sunny 103 39.4 18 -7.8 5 5 SW 16 26 29.68 1005 10 16 0.00 0.00
3:53 pm 15:53 Sunny 104 40 10 -12.2 3 3 WSW 17 28 29.66 1004 10 16 0.00 0.00
4:53 pm 16:53 Sunny 103 39.4 13 -10.6 4 4 SSW 17 28 29.65 1004 10 16 0.00 0.00
5:53 pm 17:53 Sunny 101 38.3 26 -3.3 7 7 WSW 17 28 29.64 1004 10 16 0.00 0.00
6:53 pm 18:53 Sunny 100 37.8 24 -4.4 7 7 SW 16 26 29.63 1003 10 16 0.00 0.00
7:53 pm 19:53 Sunny 98 36.7 21 -6.1 6 6 SW 10 17 29.64 1004 10 16 0.00 0.00
8:53 pm 20:53 Clear 95 35 24 -4.4 8 8 SW 9 15 29.65 1004 10 16 0.00 0.00
9:53 pm 21:53 Clear 94 34.4 29 -1.7 10 10 W 8 13 29.67 1005 10 16 0.00 0.00
10:53 pm 22:53 Clear 91 32.8 33 0.6 13 13 WSW 8 13 29.67 1005 10 16 0.00 0.00
11:53 pm 23:53 Clear 88 31.1 37 2.8 16 16 S 10 17 29.67 1005 10 16 0.00 0.00

Powered by AerisWeather